Location: Unspecified
(0.0000°N, 0.0000°E)
Time: 17:26:43
(UTC+00:00)

HTV-X1 - Pass Details

Date: 10 May 2026
Orbit: 372 x 382 km, 51.6° (Epoch: 21 May)

Event Time Altitude Azimuth Distance (km) Brightness Sun altitude
Rises 05:19:32 0° 332° (NNW) 2,232 ? -8.8°
Reaches altitude 10° 05:21:36 10° 337° (NNW) 1,385 ? -8.3°
Maximum altitude 05:24:38 52° 55° (NE) 479 ? -7.6°
Drops below altitude 10° 05:27:41 10° 132° (SE) 1,397 ? -6.9°
Sets 05:29:46 0° 137° (SE) 2,253 ? -6.4°
